Kemmerer, WY

7:40 PM MDT on March 30, 2017 (GMT -0600)
Kemmerer Municipal

Weather History for KEMM - July, 2013

Change the Weather History Date:

Friday, July 19, 2013

  Actual Average Record
Temperature  
Mean Temperature 68 °F -  
Max Temperature 87 °F 81 °F 90 °F (1955)
Min Temperature 50 °F 44 °F 32 °F (1987)
Cooling Degree Days 4    
Growing Degree Days 18 (Base 50)    
Moisture  
Dew Point 29 °F    
Average Humidity 25    
Maximum Humidity 51    
Minimum Humidity 8    
Precipitation  
Precipitation 0.00 in - - ()
Sea Level Pressure  
Sea Level Pressure 30.31 in    
Wind  
Wind Speed 11 mph (NNW)    
Max Wind Speed 21 mph    
Max Gust Speed 29 mph    
Visibility 10 miles    
Events      
Averages and records for this station are not official NWS values.
T = Trace of Precipitation, MM = Missing Value Source: NWS Daily Summary

Daily Weather History Graph

Daily Weather History Graph

Search for Another Location

Airport or City:

Trip Planner

Search our weather history database for the weather conditions in past years. The results will help you decide how hot, cold, wet, or windy it might be!

Date:

Astronomy

Jul. 19, 2013 Rise Set
Actual Time 6:04 AM MDT 8:52 PM MDT
Civil Twilight 5:31 AM MDT 9:25 PM MDT
Nautical Twilight 4:50 AM MDT 10:06 PM MDT
Astronomical Twilight 4:02 AM MDT 10:53 PM MDT
Moon 5:58 PM MDT (7/19) 2:48 AM MDT (7/19)
Length of Visible Light 15h 53m
Length of Day
14h 48m
Waxing Gibbous, 87% of the Moon is Illuminated
Jul 19
Waxing Gibbous
Jul 22
Full
Jul 29
Last Quarter
Aug 6
New
Aug 14
First Quarter

Hourly Weather History & Observations

Time (MDT) Temp. Dew Point Humidity Pressure Visibility Wind Dir Wind Speed Gust Speed Precip Events Conditions
12:15 AM 62.8 °F 33.3 °F 33% 30.35 in 10.0 mi NNW 12.7 mph - N/A   Clear
12:35 AM 63.0 °F 32.2 °F 32% 30.35 in 10.0 mi NNW 11.5 mph - N/A   Clear
12:55 AM 62.4 °F 32.0 °F 32% 30.35 in 10.0 mi NNW 12.7 mph - N/A   Clear
1:15 AM 61.3 °F 32.0 °F 33% 30.34 in 10.0 mi North 10.4 mph - N/A   Clear
1:35 AM 60.6 °F 32.0 °F 34% 30.34 in 10.0 mi North 12.7 mph - N/A   Clear
1:55 AM 60.3 °F 31.8 °F 34% 30.34 in 10.0 mi NNW 11.5 mph - N/A   Clear
2:15 AM 58.6 °F 32.4 °F 37% 30.33 in 10.0 mi NNW 15.0 mph - N/A   Clear
2:35 AM 58.5 °F 31.8 °F 37% 30.33 in 10.0 mi North 12.7 mph - N/A   Clear
2:55 AM 57.4 °F 32.0 °F 38% 30.32 in 10.0 mi NNW 12.7 mph - N/A   Clear
3:15 AM 56.3 °F 32.0 °F 40% 30.32 in 10.0 mi North 12.7 mph - N/A   Clear
3:35 AM 55.8 °F 32.0 °F 41% 30.32 in 10.0 mi North 12.7 mph - N/A   Clear
3:55 AM 55.8 °F 31.8 °F 40% 30.32 in 10.0 mi North 12.7 mph - N/A   Clear
4:15 AM 55.0 °F 32.0 °F 42% 30.32 in 10.0 mi North 15.0 mph - N/A   Clear
4:35 AM 54.5 °F 32.0 °F 42% 30.32 in 10.0 mi Calm Calm - N/A   Clear
4:55 AM 53.4 °F 32.2 °F 44% 30.33 in 10.0 mi North 8.1 mph - N/A   Clear
5:15 AM 52.9 °F 32.2 °F 45% 30.34 in 10.0 mi NNW 15.0 mph - N/A   Clear
5:35 AM 53.1 °F 32.4 °F 45% 30.34 in 10.0 mi North 13.8 mph - N/A   Clear
5:55 AM 51.8 °F 32.7 °F 48% 30.34 in 10.0 mi North 13.8 mph - N/A   Clear
6:15 AM 50.9 °F 33.1 °F 51% 30.34 in 10.0 mi North 9.2 mph - N/A   Clear
6:35 AM 51.6 °F 33.3 °F 50% 30.35 in 10.0 mi Calm Calm - N/A   Clear
6:55 AM 54.5 °F 33.3 °F 45% 30.35 in 10.0 mi North 6.9 mph - N/A   Clear
7:15 AM 56.1 °F 35.1 °F 45% 30.35 in 10.0 mi North 10.4 mph - N/A   Clear
7:35 AM 57.4 °F 36.3 °F 45% 30.35 in 10.0 mi North 8.1 mph - N/A   Clear
7:55 AM 59.7 °F 36.0 °F 41% 30.35 in 10.0 mi Calm Calm - N/A   Clear
8:15 AM 62.2 °F 36.3 °F 38% 30.36 in 10.0 mi North 3.5 mph - N/A   Clear
8:35 AM 65.3 °F 36.9 °F 35% 30.36 in 10.0 mi North 6.9 mph - N/A   Clear
8:55 AM 68.5 °F 39.0 °F 34% 30.36 in 10.0 mi North 5.8 mph - N/A   Clear
9:15 AM 70.9 °F 41.2 °F 34% 30.36 in 10.0 mi North 4.6 mph - N/A   Clear
9:35 AM 72.5 °F 43.0 °F 35% 30.36 in 10.0 mi Calm Calm - N/A   Clear
9:55 AM 73.6 °F 43.0 °F 33% 30.36 in 10.0 mi North 3.5 mph - N/A   Clear
10:15 AM 76.1 °F 41.2 °F 29% 30.35 in 10.0 mi West 4.6 mph - N/A   Clear
10:35 AM 77.4 °F 37.4 °F 24% 30.35 in 10.0 mi NW 3.5 mph - N/A   Clear
10:55 AM 78.6 °F 34.7 °F 20% 30.35 in 10.0 mi West 5.8 mph - N/A   Clear
11:15 AM 80.4 °F 31.1 °F 17% 30.35 in 10.0 mi NNW 11.5 mph 20.7 mph N/A   Clear
11:35 AM 81.1 °F 26.6 °F 14% 30.35 in 10.0 mi NNW 4.6 mph - N/A   Clear
11:55 AM 81.7 °F 27.0 °F 14% 30.34 in 10.0 mi NNE 8.1 mph - N/A   Clear
12:15 PM 82.9 °F 30.2 °F 15% 30.33 in 10.0 mi North 6.9 mph - N/A   Clear
12:35 PM 83.8 °F 30.2 °F 14% 30.32 in 10.0 mi WNW 5.8 mph - N/A   Clear
12:55 PM 83.8 °F 27.9 °F 13% 30.32 in 10.0 mi North 5.8 mph 19.6 mph N/A   Clear
1:15 PM 84.9 °F 23.0 °F 10% 30.32 in 10.0 mi NNW 9.2 mph 21.9 mph N/A   Clear
1:35 PM 85.6 °F 22.5 °F 10% 30.32 in 10.0 mi North 6.9 mph 21.9 mph N/A   Clear
1:55 PM - - N/A% 30.31 in 10.0 mi NNW 10.4 mph 21.9 mph N/A   Clear
2:15 PM - - N/A% 30.30 in 10.0 mi NW 11.5 mph 24.2 mph N/A   Clear
2:35 PM - - N/A% 30.30 in 10.0 mi NNW 16.1 mph 21.9 mph N/A   Clear
2:55 PM 86.5 °F 19.8 °F 9% 30.30 in 10.0 mi West 12.7 mph 18.4 mph N/A   Clear
3:15 PM 87.1 °F 19.2 °F 8% 30.28 in 10.0 mi NW 11.5 mph 21.9 mph N/A   Clear
3:35 PM 86.9 °F 21.0 °F 9% 30.27 in 10.0 mi WNW 12.7 mph 25.3 mph N/A   Clear
3:55 PM 86.9 °F 20.8 °F 9% 30.27 in 10.0 mi NW 11.5 mph 21.9 mph N/A   Clear
4:15 PM 87.1 °F 21.4 °F 9% 30.26 in 10.0 mi NW 16.1 mph 23.0 mph N/A   Clear
4:35 PM 87.1 °F 21.6 °F 9% 30.26 in 10.0 mi NNW 17.3 mph 25.3 mph N/A   Clear
4:55 PM 86.9 °F 21.9 °F 9% 30.26 in 10.0 mi NW 17.3 mph 24.2 mph N/A   Clear
5:15 PM 86.4 °F 22.1 °F 10% 30.26 in 10.0 mi West 18.4 mph 23.0 mph N/A   Clear
5:35 PM 85.6 °F 19.6 °F 9% 30.25 in 10.0 mi WNW 16.1 mph 24.2 mph N/A   Clear
5:55 PM 85.5 °F 17.4 °F 8% 30.24 in 10.0 mi WNW 17.3 mph 28.8 mph N/A   Clear
6:15 PM 85.1 °F 17.6 °F 8% 30.24 in 10.0 mi NW 15.0 mph 26.5 mph N/A   Clear
6:35 PM 84.7 °F 18.0 °F 8% 30.24 in 10.0 mi West 15.0 mph 21.9 mph N/A   Clear
6:55 PM - - N/A% 30.23 in 10.0 mi WNW 17.3 mph 25.3 mph N/A   Clear
7:15 PM - - N/A% 30.24 in 10.0 mi WNW 20.7 mph 24.2 mph N/A   Clear
7:35 PM 82.4 °F 17.8 °F 9% 30.24 in 10.0 mi WNW 17.3 mph 21.9 mph N/A   Clear
7:55 PM 81.1 °F 18.7 °F 10% 30.24 in 10.0 mi WNW 13.8 mph 19.6 mph N/A   Clear
8:15 PM 79.5 °F 18.9 °F 10% 30.24 in 10.0 mi WNW 12.7 mph 17.3 mph N/A   Clear
8:35 PM 76.8 °F 19.6 °F 12% 30.24 in 10.0 mi NW 8.1 mph - N/A   Clear
8:55 PM 73.2 °F 20.1 °F 14% 30.24 in 10.0 mi NNW 8.1 mph - N/A   Clear
9:15 PM 71.4 °F 22.5 °F 16% 30.25 in 10.0 mi NNW 9.2 mph - N/A   Clear
9:35 PM 70.7 °F 23.5 °F 17% 30.25 in 10.0 mi NNW 9.2 mph - N/A   Clear
9:55 PM 69.8 °F 23.7 °F 18% 30.26 in 10.0 mi NNW 10.4 mph - N/A   Clear
10:15 PM 68.5 °F 25.5 °F 20% 30.26 in 10.0 mi NNW 11.5 mph - N/A   Clear
10:35 PM 66.9 °F 26.6 °F 22% 30.27 in 10.0 mi NNW 11.5 mph - N/A   Clear
10:55 PM 66.0 °F 26.1 °F 22% 30.27 in 10.0 mi NNW 12.7 mph - N/A   Clear
11:15 PM 65.3 °F 25.7 °F 22% 30.26 in 10.0 mi NNW 11.5 mph - N/A   Clear
11:35 PM 64.4 °F 26.1 °F 23% 30.26 in 10.0 mi NNW 9.2 mph - N/A   Clear
11:55 PM 64.0 °F 25.5 °F 23% 30.26 in 10.0 mi NNW 9.2 mph - N/A   Clear